Location: Poughquag
(41.6090°N, 73.6820°W)
Time: 00:23:07
(UTC-05:00)

Tiros 1 despin weight - Pass Details

Date: 08 December 2023
Orbit: 581 x 624 km, 48.2° (Epoch: 21 February)

Event Time Altitude Azimuth Distance (km) Brightness Sun altitude
Rises 17:50:03 0° 262° (W) 2,808 ? -15.5°
Reaches altitude 10° 17:52:24 10° 268° (W) 1,903 ? -15.9°
Maximum altitude 17:56:36 46° 343° (NNW) 781 ? -16.7°
Enters shadow 17:58:28 28° 40° (NE) 1,096 ? -17.0°
